Time,TemperatureF,DewpointF,PressureIn,WindDirection,WindDirectionDegrees,WindSpeedMPH,WindSpeedGustMPH,Humidity,HourlyPrecipIn,Conditions,Clouds,dailyrainin,SoftwareType,DateUTC
2013-06-14 00:01:00,82.9,76.4,29.89,North,9,0.0,1.0,81,0.00,,,0.00,WeatherCatV1.02B3,2013-06-14 05:01:00,
2013-06-14 00:06:00,83.0,76.5,29.91,ENE,69,0.0,6.0,81,0.00,,,0.00,WeatherCatV1.02B3,2013-06-14 05:06:00,
2013-06-14 00:11:00,83.1,77.0,29.91,East,96,1.0,5.0,82,0.00,,,0.00,WeatherCatV1.02B3,2013-06-14 05:11:00,
2013-06-14 00:16:00,83.0,77.3,29.92,ENE,66,1.0,6.0,83,0.00,,,0.00,WeatherCatV1.02B3,2013-06-14 05:16:00,
2013-06-14 00:21:00,82.7,77.4,29.92,NNE,14,1.0,4.0,84,0.00,,,0.00,WeatherCatV1.02B3,2013-06-14 05:21:00,
2013-06-14 00:23:00,82.5,77.2,29.92,NNE,15,0.0,0.0,84,0.00,,,0.00,WeatherCatV1.02B3,2013-06-14 05:23:00,
2013-06-14 00:28:00,82.3,77.3,29.93,NE,56,0.0,0.0,85,0.00,,,0.00,WeatherCatV1.02B3,2013-06-14 05:28:00,
2013-06-14 00:33:00,82.1,77.1,29.93,NE,55,0.0,0.0,85,0.00,,,0.00,WeatherCatV1.02B3,2013-06-14 05:33:00,
2013-06-14 00:38:00,82.0,77.0,29.94,East,98,0.0,0.0,85,0.00,,,0.00,WeatherCatV1.02B3,2013-06-14 05:38:00,
2013-06-14 00:43:00,81.9,77.3,29.94,East,82,0.0,4.0,86,0.00,,,0.00,WeatherCatV1.02B3,2013-06-14 05:43:00,
2013-06-14 00:48:00,81.8,77.2,29.94,NE,43,0.0,4.0,86,0.00,,,0.00,WeatherCatV1.02B3,2013-06-14 05:48:00,
2013-06-14 00:53:00,81.7,77.1,29.94,North,5,0.0,4.0,86,0.00,,,0.00,WeatherCatV1.02B3,2013-06-14 05:53:00,
2013-06-14 00:58:00,81.7,77.1,29.95,East,98,0.0,2.0,86,0.00,,,0.00,WeatherCatV1.02B3,2013-06-14 05:58:00,
2013-06-14 01:03:00,81.7,77.1,29.95,East,85,1.0,2.0,86,0.00,,,0.00,WeatherCatV1.02B3,2013-06-14 06:03:00,
2013-06-14 01:08:00,81.7,77.1,29.95,SE,134,5.0,6.0,86,0.00,,,0.00,WeatherCatV1.02B3,2013-06-14 06:08:00,
2013-06-14 01:13:00,81.5,76.5,29.95,SSE,154,1.0,8.0,85,0.00,,,0.00,WeatherCatV1.02B3,2013-06-14 06:13:00,
2013-06-14 01:18:00,81.4,76.4,29.95,East,84,2.0,4.0,85,0.00,,,0.00,WeatherCatV1.02B3,2013-06-14 06:18:00,
2013-06-14 01:23:00,81.2,75.9,29.95,North,355,1.0,8.0,84,0.00,,,0.00,WeatherCatV1.02B3,2013-06-14 06:23:00,
2013-06-14 01:28:00,81.1,75.8,29.96,East,88,0.0,4.0,84,0.00,,,0.00,WeatherCatV1.02B3,2013-06-14 06:28:00,
2013-06-14 01:33:00,81.0,76.0,29.96,East,100,0.0,1.0,85,0.00,,,0.00,WeatherCatV1.02B3,2013-06-14 06:33:00,
2013-06-14 01:38:00,80.8,75.9,29.96,ESE,114,0.0,2.0,85,0.00,,,0.00,WeatherCatV1.02B3,2013-06-14 06:38:00,
2013-06-14 01:43:00,80.6,75.3,29.96,SSE,147,4.0,5.0,84,0.00,,,0.00,WeatherCatV1.02B3,2013-06-14 06:43:00,
2013-06-14 01:48:00,80.5,75.6,29.96,SSE,148,0.0,6.0,85,0.00,,,0.00,WeatherCatV1.02B3,2013-06-14 06:48:00,
2013-06-14 01:53:00,80.2,75.3,29.96,NNE,15,1.0,5.0,85,0.00,,,0.00,WeatherCatV1.02B3,2013-06-14 06:53:00,
2013-06-14 01:58:00,80.1,75.2,29.96,East,97,1.0,2.0,85,0.00,,,0.00,WeatherCatV1.02B3,2013-06-14 06:58:00,
2013-06-14 02:03:00,79.9,75.3,29.95,SSE,156,0.0,4.0,86,0.00,,,0.00,WeatherCatV1.02B3,2013-06-14 07:03:00,
2013-06-14 02:08:00,79.8,75.2,29.95,SE,135,1.0,4.0,86,0.00,,,0.00,WeatherCatV1.02B3,2013-06-14 07:08:00,
2013-06-14 02:13:00,79.6,75.0,29.94,ENE,78,1.0,4.0,86,0.00,,,0.00,WeatherCatV1.02B3,2013-06-14 07:13:00,
2013-06-14 02:18:00,79.4,74.8,29.94,NE,38,2.0,2.0,86,0.00,,,0.00,WeatherCatV1.02B3,2013-06-14 07:18:00,
2013-06-14 02:23:00,79.2,74.6,29.94,ESE,110,0.0,5.0,86,0.00,,,0.00,WeatherCatV1.02B3,2013-06-14 07:23:00,
2013-06-14 02:28:00,78.9,74.0,29.94,ENE,57,1.0,2.0,85,0.00,,,0.00,WeatherCatV1.02B3,2013-06-14 07:28:00,
2013-06-14 02:33:00,78.7,73.8,29.94,ENE,71,0.0,0.0,85,0.00,,,0.00,WeatherCatV1.02B3,2013-06-14 07:33:00,
2013-06-14 02:38:00,78.6,73.7,29.93,ENE,78,0.0,7.0,85,0.00,,,0.00,WeatherCatV1.02B3,2013-06-14 07:38:00,
2013-06-14 02:43:00,78.4,73.1,29.94,SSE,148,1.0,7.0,84,0.00,,,0.00,WeatherCatV1.02B3,2013-06-14 07:43:00,
2013-06-14 02:48:00,78.2,72.6,29.94,SE,139,0.0,5.0,83,0.00,,,0.00,WeatherCatV1.02B3,2013-06-14 07:48:00,
2013-06-14 02:53:00,78.0,72.4,29.94,NE,50,0.0,7.0,83,0.00,,,0.00,WeatherCatV1.02B3,2013-06-14 07:53:00,
2013-06-14 02:58:00,77.9,72.3,29.94,SSE,155,0.0,1.0,83,0.00,,,0.00,WeatherCatV1.02B3,2013-06-14 07:58:00,
2013-06-14 03:03:00,77.7,72.1,29.94,ESE,107,0.0,0.0,83,0.00,,,0.00,WeatherCatV1.02B3,2013-06-14 08:03:00,
2013-06-14 03:08:00,77.6,72.0,29.94,SE,135,0.0,1.0,83,0.00,,,0.00,WeatherCatV1.02B3,2013-06-14 08:08:00,
2013-06-14 03:13:00,77.5,71.9,29.94,SE,135,0.0,0.0,83,0.00,,,0.00,WeatherCatV1.02B3,2013-06-14 08:13:00,
2013-06-14 03:18:00,77.4,71.8,29.94,SE,135,0.0,0.0,83,0.00,,,0.00,WeatherCatV1.02B3,2013-06-14 08:18:00,
2013-06-14 03:23:00,77.3,71.7,29.94,SE,136,0.0,0.0,83,0.00,,,0.00,WeatherCatV1.02B3,2013-06-14 08:23:00,
2013-06-14 03:28:00,77.0,71.4,29.94,SE,144,0.0,0.0,83,0.00,,,0.00,WeatherCatV1.02B3,2013-06-14 08:28:00,
2013-06-14 03:33:00,76.9,71.3,29.94,SE,144,0.0,0.0,83,0.00,,,0.00,WeatherCatV1.02B3,2013-06-14 08:33:00,
2013-06-14 03:38:00,76.8,71.6,29.94,SE,144,0.0,0.0,84,0.00,,,0.00,WeatherCatV1.02B3,2013-06-14 08:38:00,
2013-06-14 03:43:00,76.7,71.5,29.94,SE,144,0.0,0.0,84,0.00,,,0.00,WeatherCatV1.02B3,2013-06-14 08:43:00,
2013-06-14 03:48:00,76.5,71.3,29.94,SE,144,0.0,0.0,84,0.00,,,0.00,WeatherCatV1.02B3,2013-06-14 08:48:00,
2013-06-14 03:53:00,76.4,71.5,29.94,SE,144,0.0,0.0,85,0.00,,,0.00,WeatherCatV1.02B3,2013-06-14 08:53:00,
2013-06-14 03:58:00,76.3,71.4,29.95,SE,144,0.0,0.0,85,0.00,,,0.00,WeatherCatV1.02B3,2013-06-14 08:58:00,
2013-06-14 04:03:00,76.1,71.2,29.95,SE,144,0.0,0.0,85,0.00,,,0.00,WeatherCatV1.02B3,2013-06-14 09:03:00,
2013-06-14 04:08:00,76.0,71.2,29.95,SE,144,0.0,0.0,85,0.00,,,0.00,WeatherCatV1.02B3,2013-06-14 09:08:00,
2013-06-14 04:13:00,75.8,71.0,29.95,SE,144,0.0,0.0,85,0.00,,,0.00,WeatherCatV1.02B3,2013-06-14 09:13:00,
2013-06-14 04:18:00,75.7,71.2,29.95,SE,144,0.0,0.0,86,0.00,,,0.00,WeatherCatV1.02B3,2013-06-14 09:18:00,
2013-06-14 04:23:00,75.6,71.1,29.95,SE,144,0.0,0.0,86,0.00,,,0.00,WeatherCatV1.02B3,2013-06-14 09:23:00,
2013-06-14 04:28:00,75.5,71.0,29.95,SE,144,0.0,0.0,86,0.00,,,0.00,WeatherCatV1.02B3,2013-06-14 09:28:00,
2013-06-14 04:33:00,75.3,70.8,29.95,SE,144,0.0,0.0,86,0.00,,,0.00,WeatherCatV1.02B3,2013-06-14 09:33:00,
2013-06-14 04:38:00,75.2,70.7,29.94,SE,144,0.0,2.0,86,0.00,,,0.00,WeatherCatV1.02B3,2013-06-14 09:38:00,
2013-06-14 04:43:00,75.1,70.6,29.94,SE,144,0.0,0.0,86,0.00,,,0.00,WeatherCatV1.02B3,2013-06-14 09:43:00,
2013-06-14 04:48:00,75.0,70.5,29.94,SE,144,0.0,2.0,86,0.00,,,0.00,WeatherCatV1.02B3,2013-06-14 09:48:00,
2013-06-14 04:53:00,75.0,70.5,29.95,East,88,0.0,1.0,86,0.00,,,0.00,WeatherCatV1.02B3,2013-06-14 09:53:00,
2013-06-14 04:58:00,75.0,70.9,29.95,East,87,0.0,0.0,87,0.00,,,0.00,WeatherCatV1.02B3,2013-06-14 09:58:00,
2013-06-14 05:03:00,75.0,70.9,29.94,SE,128,0.0,2.0,87,0.00,,,0.00,WeatherCatV1.02B3,2013-06-14 10:03:00,
2013-06-14 05:08:00,74.9,70.4,29.94,SSE,154,0.0,6.0,86,0.00,,,0.00,WeatherCatV1.02B3,2013-06-14 10:08:00,
2013-06-14 05:13:00,74.8,70.0,29.94,East,84,0.0,5.0,85,0.00,,,0.00,WeatherCatV1.02B3,2013-06-14 10:13:00,
2013-06-14 05:18:00,74.7,69.5,29.94,East,84,0.0,0.0,84,0.00,,,0.00,WeatherCatV1.02B3,2013-06-14 10:18:00,
2013-06-14 05:23:00,74.7,69.5,29.95,East,84,0.0,0.0,84,0.00,,,0.00,WeatherCatV1.02B3,2013-06-14 10:23:00,
2013-06-14 05:28:00,74.6,69.4,29.95,East,84,0.0,2.0,84,0.00,,,0.00,WeatherCatV1.02B3,2013-06-14 10:28:00,
2013-06-14 05:33:00,74.6,69.4,29.95,East,84,0.0,0.0,84,0.00,,,0.00,WeatherCatV1.02B3,2013-06-14 10:33:00,
2013-06-14 05:38:00,74.4,69.2,29.95,SE,134,0.0,2.0,84,0.00,,,0.00,WeatherCatV1.02B3,2013-06-14 10:38:00,
2013-06-14 05:43:00,74.4,69.2,29.95,SE,126,1.0,1.0,84,0.00,,,0.00,WeatherCatV1.02B3,2013-06-14 10:43:00,
2013-06-14 05:48:00,74.2,69.4,29.95,NE,46,0.0,1.0,85,0.00,,,0.00,WeatherCatV1.02B3,2013-06-14 10:48:00,
2013-06-14 05:53:00,74.2,69.4,29.95,NE,46,0.0,0.0,85,0.00,,,0.00,WeatherCatV1.02B3,2013-06-14 10:53:00,
2013-06-14 05:58:00,74.2,69.4,29.95,ENE,78,3.0,4.0,85,0.00,,,0.00,WeatherCatV1.02B3,2013-06-14 10:58:00,
2013-06-14 06:03:00,74.1,69.3,29.95,ENE,78,0.0,0.0,85,0.00,,,0.00,WeatherCatV1.02B3,2013-06-14 11:03:00,
2013-06-14 06:08:00,74.1,69.6,29.95,SSE,147,2.0,2.0,86,0.00,,,0.00,WeatherCatV1.02B3,2013-06-14 11:08:00,
2013-06-14 06:13:00,74.1,69.6,29.95,East,82,1.0,4.0,86,0.00,,,0.00,WeatherCatV1.02B3,2013-06-14 11:13:00,
2013-06-14 06:18:00,74.2,70.1,29.95,East,85,1.0,1.0,87,0.00,,,0.00,WeatherCatV1.02B3,2013-06-14 11:18:00,
2013-06-14 06:23:00,74.2,70.1,29.95,ESE,112,0.0,1.0,87,0.00,,,0.00,WeatherCatV1.02B3,2013-06-14 11:23:00,
2013-06-14 06:28:00,74.3,70.2,29.95,NNE,28,0.0,2.0,87,0.00,,,0.00,WeatherCatV1.02B3,2013-06-14 11:28:00,
2013-06-14 06:33:00,74.3,69.8,29.96,NE,46,0.0,1.0,86,0.00,,,0.00,WeatherCatV1.02B3,2013-06-14 11:33:00,
2013-06-14 06:38:00,74.4,69.9,29.96,SE,130,0.0,4.0,86,0.00,,,0.00,WeatherCatV1.02B3,2013-06-14 11:38:00,
2013-06-14 06:43:00,74.4,69.6,29.96,East,93,0.0,2.0,85,0.00,,,0.00,WeatherCatV1.02B3,2013-06-14 11:43:00,
2013-06-14 06:48:00,74.5,69.7,29.96,ENE,66,0.0,3.0,85,0.00,,,0.00,WeatherCatV1.02B3,2013-06-14 11:48:00,
2013-06-14 06:53:00,74.5,69.7,29.96,NE,38,0.0,5.0,85,0.00,,,0.00,WeatherCatV1.02B3,2013-06-14 11:53:00,
2013-06-14 06:58:00,74.6,69.8,29.97,SSE,167,2.0,5.0,85,0.00,,,0.00,WeatherCatV1.02B3,2013-06-14 11:58:00,
2013-06-14 07:03:00,74.6,69.4,29.97,ENE,76,0.0,5.0,84,0.00,,,0.00,WeatherCatV1.02B3,2013-06-14 12:03:00,
2013-06-14 07:08:00,74.7,69.5,29.97,ENE,61,2.0,6.0,84,0.00,,,0.00,WeatherCatV1.02B3,2013-06-14 12:08:00,
2013-06-14 07:13:00,74.8,69.6,29.97,East,80,2.0,5.0,84,0.00,,,0.00,WeatherCatV1.02B3,2013-06-14 12:13:00,
2013-06-14 07:18:00,74.9,69.7,29.97,SE,143,2.0,2.0,84,0.00,,,0.00,WeatherCatV1.02B3,2013-06-14 12:18:00,
2013-06-14 07:23:00,75.0,69.5,29.98,East,81,3.0,6.0,83,0.00,,,0.00,WeatherCatV1.02B3,2013-06-14 12:23:00,
2013-06-14 07:28:00,75.1,69.6,29.98,East,82,4.0,7.0,83,0.00,,,0.00,WeatherCatV1.02B3,2013-06-14 12:28:00,
2013-06-14 07:33:00,75.2,69.3,29.98,NE,49,0.0,2.0,82,0.00,,,0.00,WeatherCatV1.02B3,2013-06-14 12:33:00,
2013-06-14 07:38:00,75.4,69.5,29.98,East,81,0.0,4.0,82,0.00,,,0.00,WeatherCatV1.02B3,2013-06-14 12:38:00,
2013-06-14 07:43:00,75.6,69.7,29.98,NNE,32,0.0,1.0,82,0.00,,,0.00,WeatherCatV1.02B3,2013-06-14 12:43:00,
2013-06-14 07:48:00,75.8,69.5,29.99,NE,34,0.0,1.0,81,0.00,,,0.00,WeatherCatV1.02B3,2013-06-14 12:48:00,
2013-06-14 07:53:00,75.9,69.3,29.99,ESE,112,1.0,2.0,80,0.00,,,0.00,WeatherCatV1.02B3,2013-06-14 12:53:00,
2013-06-14 07:58:00,76.1,69.1,29.99,SE,132,0.0,2.0,79,0.00,,,0.00,WeatherCatV1.02B3,2013-06-14 12:58:00,
2013-06-14 08:03:00,76.4,69.4,29.99,SE,125,0.0,5.0,79,0.00,,,0.00,WeatherCatV1.02B3,2013-06-14 13:03:00,
2013-06-14 08:08:00,76.6,69.2,29.99,East,90,0.0,4.0,78,0.00,,,0.00,WeatherCatV1.02B3,2013-06-14 13:08:00,
2013-06-14 08:13:00,76.8,68.6,29.99,East,82,2.0,7.0,76,0.00,,,0.00,WeatherCatV1.02B3,2013-06-14 13:13:00,
2013-06-14 08:18:00,76.9,68.4,30.00,ESE,119,1.0,7.0,75,0.00,,,0.00,WeatherCatV1.02B3,2013-06-14 13:18:00,
2013-06-14 08:23:00,77.0,68.8,30.00,East,80,5.0,6.0,76,0.00,,,0.00,WeatherCatV1.02B3,2013-06-14 13:23:00,
2013-06-14 08:28:00,77.2,68.3,30.00,ENE,69,0.0,4.0,74,0.00,,,0.00,WeatherCatV1.02B3,2013-06-14 13:28:00,
2013-06-14 08:33:00,77.4,68.0,30.00,South,184,2.0,2.0,73,0.00,,,0.00,WeatherCatV1.02B3,2013-06-14 13:33:00,
2013-06-14 08:38:00,77.7,68.7,30.00,East,93,2.0,8.0,74,0.00,,,0.00,WeatherCatV1.02B3,2013-06-14 13:38:00,
2013-06-14 08:43:00,77.9,68.9,30.00,NNE,25,0.0,2.0,74,0.00,,,0.00,WeatherCatV1.02B3,2013-06-14 13:43:00,
2013-06-14 08:48:00,78.2,68.4,30.00,SSE,149,0.0,2.0,72,0.00,,,0.00,WeatherCatV1.02B3,2013-06-14 13:48:00,
2013-06-14 08:53:00,78.4,69.0,30.00,ENE,62,1.0,1.0,73,0.00,,,0.00,WeatherCatV1.02B3,2013-06-14 13:53:00,
2013-06-14 08:58:00,78.6,68.4,30.00,SE,135,2.0,7.0,71,0.00,,,0.00,WeatherCatV1.02B3,2013-06-14 13:58:00,
2013-06-14 09:03:00,78.7,68.9,30.01,SSE,155,0.0,5.0,72,0.00,,,0.00,WeatherCatV1.02B3,2013-06-14 14:03:00,
2013-06-14 09:08:00,78.9,69.1,30.01,SE,131,2.0,2.0,72,0.00,,,0.00,WeatherCatV1.02B3,2013-06-14 14:08:00,
2013-06-14 09:13:00,79.1,69.3,30.01,SSE,154,0.0,7.0,72,0.00,,,0.00,WeatherCatV1.02B3,2013-06-14 14:13:00,
2013-06-14 09:18:00,79.3,68.6,30.01,ENE,59,0.0,3.0,70,0.00,,,0.00,WeatherCatV1.02B3,2013-06-14 14:18:00,
2013-06-14 09:23:00,79.4,69.2,30.01,SE,136,0.0,5.0,71,0.00,,,0.00,WeatherCatV1.02B3,2013-06-14 14:23:00,
2013-06-14 09:28:00,79.7,69.4,30.01,ESE,123,0.0,2.0,71,0.00,,,0.00,WeatherCatV1.02B3,2013-06-14 14:28:00,
2013-06-14 09:33:00,80.0,69.3,30.01,SE,146,0.0,1.0,70,0.00,,,0.00,WeatherCatV1.02B3,2013-06-14 14:33:00,
2013-06-14 09:38:00,80.2,69.5,30.00,East,94,0.0,4.0,70,0.00,,,0.00,WeatherCatV1.02B3,2013-06-14 14:38:00,
2013-06-14 09:43:00,80.2,69.1,30.00,East,93,1.0,6.0,69,0.00,,,0.00,WeatherCatV1.02B3,2013-06-14 14:43:00,
2013-06-14 09:48:00,80.0,68.9,30.00,East,92,1.0,2.0,69,0.00,,,0.00,WeatherCatV1.02B3,2013-06-14 14:48:00,
2013-06-14 09:53:00,80.0,68.9,30.00,SE,146,0.0,6.0,69,0.00,,,0.00,WeatherCatV1.02B3,2013-06-14 14:53:00,
2013-06-14 09:58:00,80.2,69.5,30.00,SE,146,0.0,6.0,70,0.00,,,0.00,WeatherCatV1.02B3,2013-06-14 14:58:00,
2013-06-14 10:03:00,80.4,69.3,30.00,NNE,29,0.0,4.0,69,0.00,,,0.00,WeatherCatV1.02B3,2013-06-14 15:03:00,
2013-06-14 10:08:00,80.5,69.4,30.00,SE,130,0.0,2.0,69,0.00,,,0.00,WeatherCatV1.02B3,2013-06-14 15:08:00,
2013-06-14 10:13:00,81.0,69.4,30.00,SE,139,0.0,0.0,68,0.00,,,0.00,WeatherCatV1.02B3,2013-06-14 15:13:00,
2013-06-14 10:18:00,81.3,70.1,30.00,East,99,1.0,4.0,69,0.00,,,0.00,WeatherCatV1.02B3,2013-06-14 15:18:00,
2013-06-14 10:23:00,81.3,68.4,30.00,East,94,4.0,4.0,65,0.00,,,0.00,WeatherCatV1.02B3,2013-06-14 15:23:00,
2013-06-14 10:28:00,81.3,68.4,30.00,East,93,1.0,6.0,65,0.00,,,0.00,WeatherCatV1.02B3,2013-06-14 15:28:00,
2013-06-14 10:33:00,81.6,69.1,30.00,NNE,28,0.0,3.0,66,0.00,,,0.00,WeatherCatV1.02B3,2013-06-14 15:33:00,
2013-06-14 10:38:00,81.8,68.9,30.00,ESE,113,4.0,4.0,65,0.00,,,0.00,WeatherCatV1.02B3,2013-06-14 15:38:00,
2013-06-14 10:43:00,81.9,69.4,30.00,SE,144,2.0,5.0,66,0.00,,,0.00,WeatherCatV1.02B3,2013-06-14 15:43:00,
2013-06-14 10:48:00,82.1,68.7,30.00,East,95,4.0,4.0,64,0.00,,,0.00,WeatherCatV1.02B3,2013-06-14 15:48:00,
2013-06-14 10:53:00,82.1,69.1,30.00,NE,53,0.0,5.0,65,0.00,,,0.00,WeatherCatV1.02B3,2013-06-14 15:53:00,
2013-06-14 10:58:00,82.2,68.3,30.00,SSE,157,0.0,1.0,63,0.00,,,0.00,WeatherCatV1.02B3,2013-06-14 15:58:00,
2013-06-14 11:03:00,82.4,68.0,30.00,East,98,0.0,2.0,62,0.00,,,0.00,WeatherCatV1.02B3,2013-06-14 16:03:00,
2013-06-14 11:08:00,82.5,69.5,30.00,ENE,58,0.0,4.0,65,0.00,,,0.00,WeatherCatV1.02B3,2013-06-14 16:08:00,
2013-06-14 11:13:00,82.5,68.6,30.00,NNE,12,0.0,4.0,63,0.00,,,0.00,WeatherCatV1.02B3,2013-06-14 16:13:00,
2013-06-14 11:18:00,82.5,69.1,30.00,East,82,4.0,4.0,64,0.00,,,0.00,WeatherCatV1.02B3,2013-06-14 16:18:00,
2013-06-14 11:23:00,82.5,68.6,30.00,ENE,59,0.0,3.0,63,0.00,,,0.00,WeatherCatV1.02B3,2013-06-14 16:23:00,
2013-06-14 11:28:00,82.8,69.3,30.00,ENE,62,0.0,3.0,64,0.00,,,0.00,WeatherCatV1.02B3,2013-06-14 16:28:00,
2013-06-14 11:33:00,83.0,68.6,30.00,East,80,0.0,2.0,62,0.00,,,0.00,WeatherCatV1.02B3,2013-06-14 16:33:00,
2013-06-14 11:38:00,83.1,69.2,30.00,East,90,0.0,3.0,63,0.00,,,0.00,WeatherCatV1.02B3,2013-06-14 16:38:00,
2013-06-14 11:43:00,83.4,70.4,30.00,East,97,0.0,5.0,65,0.00,,,0.00,WeatherCatV1.02B3,2013-06-14 16:43:00,
2013-06-14 11:48:00,83.8,71.2,30.00,SE,134,0.0,5.0,66,0.00,,,0.00,WeatherCatV1.02B3,2013-06-14 16:48:00,
2013-06-14 11:53:00,83.9,69.0,30.00,ENE,77,0.0,7.0,61,0.00,,,0.00,WeatherCatV1.02B3,2013-06-14 16:53:00,
2013-06-14 11:58:00,83.8,69.8,30.00,SSE,151,1.0,7.0,63,0.00,,,0.00,WeatherCatV1.02B3,2013-06-14 16:58:00,
2013-06-14 12:03:00,83.8,68.4,30.00,NNW,346,0.0,4.0,60,0.00,,,0.00,WeatherCatV1.02B3,2013-06-14 17:03:00,
2013-06-14 12:08:00,83.7,68.3,30.00,ENE,70,0.0,6.0,60,0.00,,,0.00,WeatherCatV1.02B3,2013-06-14 17:08:00,
2013-06-14 12:13:00,83.5,68.6,30.00,ENE,77,0.0,5.0,61,0.00,,,0.00,WeatherCatV1.02B3,2013-06-14 17:13:00,
2013-06-14 12:18:00,83.7,68.8,30.00,NNE,33,0.0,2.0,61,0.00,,,0.00,WeatherCatV1.02B3,2013-06-14 17:18:00,
2013-06-14 12:23:00,83.5,68.6,30.00,NNE,28,0.0,7.0,61,0.00,,,0.00,WeatherCatV1.02B3,2013-06-14 17:23:00,
2013-06-14 12:28:00,83.7,69.7,30.00,ENE,63,0.0,7.0,63,0.00,,,0.00,WeatherCatV1.02B3,2013-06-14 17:28:00,
2013-06-14 12:33:00,83.9,69.5,30.00,NE,38,2.0,6.0,62,0.00,,,0.00,WeatherCatV1.02B3,2013-06-14 17:33:00,
2013-06-14 12:38:00,84.0,69.5,30.00,SSE,151,0.0,5.0,62,0.00,,,0.00,WeatherCatV1.02B3,2013-06-14 17:38:00,
2013-06-14 12:43:00,84.2,68.3,29.99,SSE,155,8.0,9.0,59,0.00,,,0.00,WeatherCatV1.02B3,2013-06-14 17:43:00,
2013-06-14 12:48:00,84.2,69.3,29.99,South,175,2.0,8.0,61,0.00,,,0.00,WeatherCatV1.02B3,2013-06-14 17:48:00,
2013-06-14 12:53:00,84.5,68.6,29.99,ENE,65,1.0,2.0,59,0.00,,,0.00,WeatherCatV1.02B3,2013-06-14 17:53:00,
2013-06-14 12:58:00,84.5,68.6,29.99,SSE,150,1.0,9.0,59,0.00,,,0.00,WeatherCatV1.02B3,2013-06-14 17:58:00,
2013-06-14 13:03:00,84.8,69.8,29.98,East,84,0.0,7.0,61,0.00,,,0.00,WeatherCatV1.02B3,2013-06-14 18:03:00,
2013-06-14 13:08:00,84.9,68.4,29.98,NE,52,1.0,3.0,58,0.00,,,0.00,WeatherCatV1.02B3,2013-06-14 18:08:00,
2013-06-14 13:13:00,85.2,68.2,29.98,North,5,2.0,5.0,57,0.00,,,0.00,WeatherCatV1.02B3,2013-06-14 18:13:00,
2013-06-14 13:18:00,85.3,69.8,29.98,East,95,0.0,2.0,60,0.00,,,0.00,WeatherCatV1.02B3,2013-06-14 18:18:00,
2013-06-14 13:23:00,85.4,67.4,29.98,NW,308,0.0,4.0,55,0.00,,,0.00,WeatherCatV1.02B3,2013-06-14 18:23:00,
2013-06-14 13:28:00,84.7,67.2,29.98,NE,36,0.0,6.0,56,0.00,,,0.00,WeatherCatV1.02B3,2013-06-14 18:28:00,
2013-06-14 13:33:00,84.8,68.3,29.98,North,9,2.0,4.0,58,0.00,,,0.00,WeatherCatV1.02B3,2013-06-14 18:33:00,
2013-06-14 13:38:00,85.4,69.9,29.97,East,88,2.0,5.0,60,0.00,,,0.00,WeatherCatV1.02B3,2013-06-14 18:38:00,
2013-06-14 13:43:00,86.0,70.0,29.97,NW,313,3.0,5.0,59,0.00,,,0.00,WeatherCatV1.02B3,2013-06-14 18:43:00,
2013-06-14 13:48:00,85.3,68.8,29.97,East,80,2.0,10.0,58,0.00,,,0.00,WeatherCatV1.02B3,2013-06-14 18:48:00,
2013-06-14 13:53:00,85.7,68.7,29.97,SE,129,0.0,8.0,57,0.00,,,0.00,WeatherCatV1.02B3,2013-06-14 18:53:00,
2013-06-14 13:58:00,86.2,68.1,29.96,East,81,0.0,2.0,55,0.00,,,0.00,WeatherCatV1.02B3,2013-06-14 18:58:00,
2013-06-14 14:03:00,86.7,68.0,29.96,East,98,2.0,8.0,54,0.00,,,0.00,WeatherCatV1.02B3,2013-06-14 19:03:00,
2013-06-14 14:08:00,86.2,68.1,29.96,East,86,1.0,7.0,55,0.00,,,0.00,WeatherCatV1.02B3,2013-06-14 19:08:00,
2013-06-14 14:13:00,86.1,70.6,29.96,ENE,71,0.0,6.0,60,0.00,,,0.00,WeatherCatV1.02B3,2013-06-14 19:13:00,
2013-06-14 14:18:00,86.5,69.4,29.96,ENE,65,0.0,3.0,57,0.00,,,0.00,WeatherCatV1.02B3,2013-06-14 19:18:00,
2013-06-14 14:23:00,86.8,68.1,29.96,NE,36,0.0,5.0,54,0.00,,,0.00,WeatherCatV1.02B3,2013-06-14 19:23:00,
2013-06-14 14:28:00,86.4,65.5,29.96,ENE,72,0.0,5.0,50,0.00,,,0.00,WeatherCatV1.02B3,2013-06-14 19:28:00,
2013-06-14 14:33:00,86.7,67.5,29.96,NNE,16,0.0,4.0,53,0.00,,,0.00,WeatherCatV1.02B3,2013-06-14 19:33:00,
2013-06-14 14:39:00,86.8,65.9,29.96,SSE,155,2.0,4.0,50,0.00,,,0.00,WeatherCatV1.02B3,2013-06-14 19:39:00,
2013-06-14 14:44:00,86.8,65.9,29.96,NE,42,0.0,2.0,50,0.00,,,0.00,WeatherCatV1.02B3,2013-06-14 19:44:00,
2013-06-14 14:49:00,86.3,65.4,29.96,NW,319,2.0,4.0,50,0.00,,,0.00,WeatherCatV1.02B3,2013-06-14 19:49:00,
2013-06-14 14:53:00,86.7,67.5,29.96,NNE,12,2.0,6.0,53,0.00,,,0.00,WeatherCatV1.02B3,2013-06-14 19:53:00,
2013-06-14 14:58:00,86.6,67.4,29.96,NE,53,1.0,7.0,53,0.00,,,0.00,WeatherCatV1.02B3,2013-06-14 19:58:00,
2013-06-14 15:03:00,86.7,65.8,29.96,NNW,337,0.0,2.0,50,0.00,,,0.00,WeatherCatV1.02B3,2013-06-14 20:03:00,
2013-06-14 15:09:00,86.9,67.1,29.96,NNE,13,3.0,7.0,52,0.00,,,0.00,WeatherCatV1.02B3,2013-06-14 20:09:00,
2013-06-14 15:14:00,87.3,66.3,29.96,ENE,69,0.0,6.0,50,0.00,,,0.00,WeatherCatV1.02B3,2013-06-14 20:14:00,
2013-06-14 15:19:00,87.4,67.6,29.96,NE,51,2.0,9.0,52,0.00,,,0.00,WeatherCatV1.02B3,2013-06-14 20:19:00,
2013-06-14 15:24:00,87.9,68.0,29.96,ENE,78,0.0,6.0,52,0.00,,,0.00,WeatherCatV1.02B3,2013-06-14 20:24:00,
2013-06-14 15:29:00,87.8,65.6,29.96,North,9,0.0,7.0,48,0.00,,,0.00,WeatherCatV1.02B3,2013-06-14 20:29:00,
2013-06-14 15:34:00,87.6,67.8,29.96,ENE,63,0.0,1.0,52,0.00,,,0.00,WeatherCatV1.02B3,2013-06-14 20:34:00,
2013-06-14 15:39:00,88.1,67.1,29.96,NNE,30,1.0,8.0,50,0.00,,,0.00,WeatherCatV1.02B3,2013-06-14 20:39:00,
2013-06-14 15:44:00,88.4,67.4,29.96,NNE,31,0.0,6.0,50,0.00,,,0.00,WeatherCatV1.02B3,2013-06-14 20:44:00,
2013-06-14 15:49:00,88.5,66.3,29.97,North,5,3.0,5.0,48,0.00,,,0.00,WeatherCatV1.02B3,2013-06-14 20:49:00,
2013-06-14 15:54:00,88.2,66.0,29.97,ENE,62,0.0,2.0,48,0.00,,,0.00,WeatherCatV1.02B3,2013-06-14 20:54:00,
2013-06-14 15:59:00,88.5,65.7,29.97,SSE,157,6.0,9.0,47,0.00,,,0.00,WeatherCatV1.02B3,2013-06-14 20:59:00,
2013-06-14 16:04:00,88.1,65.3,29.97,SE,130,1.0,6.0,47,0.00,,,0.00,WeatherCatV1.02B3,2013-06-14 21:04:00,
2013-06-14 16:09:00,88.7,65.2,29.97,SE,137,0.0,7.0,46,0.00,,,0.00,WeatherCatV1.02B3,2013-06-14 21:09:00,
2013-06-14 16:14:00,88.4,64.3,29.97,SE,128,0.0,7.0,45,0.00,,,0.00,WeatherCatV1.02B3,2013-06-14 21:14:00,
2013-06-14 16:19:00,88.4,66.2,29.97,East,82,2.0,2.0,48,0.00,,,0.00,WeatherCatV1.02B3,2013-06-14 21:19:00,
2013-06-14 16:24:00,88.9,66.0,29.97,East,93,2.0,5.0,47,0.00,,,0.00,WeatherCatV1.02B3,2013-06-14 21:24:00,
2013-06-14 16:29:00,89.0,65.5,29.96,NNE,25,0.0,3.0,46,0.00,,,0.00,WeatherCatV1.02B3,2013-06-14 21:29:00,
2013-06-14 16:34:00,88.8,65.9,29.96,NNE,24,0.0,3.0,47,0.00,,,0.00,WeatherCatV1.02B3,2013-06-14 21:34:00,
2013-06-14 16:36:00,88.8,66.5,29.96,NNE,32,0.0,2.0,48,0.00,,,0.00,WeatherCatV1.02B3,2013-06-14 21:36:00,
2013-06-14 16:41:00,88.7,65.8,29.96,SSE,152,2.0,5.0,47,0.00,,,0.00,WeatherCatV1.02B3,2013-06-14 21:41:00,
2013-06-14 16:46:00,88.4,65.6,29.96,ESE,107,0.0,4.0,47,0.00,,,0.00,WeatherCatV1.02B3,2013-06-14 21:46:00,
2013-06-14 16:51:00,88.4,66.8,29.96,East,91,1.0,1.0,49,0.00,,,0.00,WeatherCatV1.02B3,2013-06-14 21:51:00,
2013-06-14 16:56:00,87.5,64.7,29.96,ENE,68,2.0,7.0,47,0.00,,,0.00,WeatherCatV1.02B3,2013-06-14 21:56:00,
2013-06-14 17:01:00,86.9,66.6,29.96,SE,124,0.0,2.0,51,0.00,,,0.00,WeatherCatV1.02B3,2013-06-14 22:01:00,
2013-06-14 17:06:00,87.5,67.1,29.95,SE,141,0.0,6.0,51,0.00,,,0.00,WeatherCatV1.02B3,2013-06-14 22:06:00,
2013-06-14 17:11:00,87.5,64.7,29.95,ENE,66,1.0,6.0,47,0.00,,,0.00,WeatherCatV1.02B3,2013-06-14 22:11:00,
2013-06-14 17:16:00,87.4,65.3,29.95,SSE,152,0.0,4.0,48,0.00,,,0.00,WeatherCatV1.02B3,2013-06-14 22:16:00,
2013-06-14 17:21:00,87.2,65.7,29.95,NE,49,1.0,1.0,49,0.00,,,0.00,WeatherCatV1.02B3,2013-06-14 22:21:00,
2013-06-14 17:26:00,87.2,65.1,29.95,East,87,0.0,1.0,48,0.00,,,0.00,WeatherCatV1.02B3,2013-06-14 22:26:00,
2013-06-14 17:31:00,87.1,65.6,29.95,ENE,78,2.0,5.0,49,0.00,,,0.00,WeatherCatV1.02B3,2013-06-14 22:31:00,
2013-06-14 17:36:00,86.9,66.6,29.95,ENE,67,0.0,2.0,51,0.00,,,0.00,WeatherCatV1.02B3,2013-06-14 22:36:00,
2013-06-14 17:41:00,86.9,64.8,29.95,NE,42,0.0,5.0,48,0.00,,,0.00,WeatherCatV1.02B3,2013-06-14 22:41:00,
2013-06-14 17:46:00,86.3,64.3,29.95,NE,35,0.0,7.0,48,0.00,,,0.00,WeatherCatV1.02B3,2013-06-14 22:46:00,
2013-06-14 17:51:00,86.0,64.0,29.95,East,84,0.0,7.0,48,0.00,,,0.00,WeatherCatV1.02B3,2013-06-14 22:51:00,
2013-06-14 17:56:00,85.9,63.3,29.96,East,94,2.0,5.0,47,0.00,,,0.00,WeatherCatV1.02B3,2013-06-14 22:56:00,
2013-06-14 18:01:00,85.7,64.3,29.95,SSE,155,0.0,2.0,49,0.00,,,0.00,WeatherCatV1.02B3,2013-06-14 23:01:00,
2013-06-14 18:06:00,85.7,65.5,29.95,SSE,152,0.0,2.0,51,0.00,,,0.00,WeatherCatV1.02B3,2013-06-14 23:06:00,
2013-06-14 18:11:00,85.7,64.3,29.96,East,100,1.0,1.0,49,0.00,,,0.00,WeatherCatV1.02B3,2013-06-14 23:11:00,
2013-06-14 18:16:00,85.6,64.8,29.95,ESE,105,0.0,4.0,50,0.00,,,0.00,WeatherCatV1.02B3,2013-06-14 23:16:00,
2013-06-14 18:21:00,85.4,64.6,29.95,SE,134,0.0,4.0,50,0.00,,,0.00,WeatherCatV1.02B3,2013-06-14 23:21:00,
2013-06-14 18:26:00,85.0,64.2,29.95,ESE,103,1.0,2.0,50,0.00,,,0.00,WeatherCatV1.02B3,2013-06-14 23:26:00,
2013-06-14 18:31:00,84.8,64.6,29.95,ENE,74,0.0,2.0,51,0.00,,,0.00,WeatherCatV1.02B3,2013-06-14 23:31:00,
2013-06-14 18:36:00,84.7,65.6,29.95,ENE,74,0.0,1.0,53,0.00,,,0.00,WeatherCatV1.02B3,2013-06-14 23:36:00,
2013-06-14 18:41:00,84.6,65.6,29.95,ENE,78,1.0,2.0,53,0.00,,,0.00,WeatherCatV1.02B3,2013-06-14 23:41:00,
2013-06-14 18:46:00,84.3,64.7,29.96,ESE,104,0.0,5.0,52,0.00,,,0.00,WeatherCatV1.02B3,2013-06-14 23:46:00,
2013-06-14 18:51:00,84.0,64.4,29.96,East,88,0.0,1.0,52,0.00,,,0.00,WeatherCatV1.02B3,2013-06-14 23:51:00,
2013-06-14 18:56:00,83.8,64.3,29.96,SSE,157,0.0,0.0,52,0.00,,,0.00,WeatherCatV1.02B3,2013-06-14 23:56:00,
2013-06-14 19:01:00,83.7,64.2,29.95,SSE,156,0.0,5.0,52,0.00,,,0.00,WeatherCatV1.02B3,2013-06-15 00:01:00,
2013-06-14 19:06:00,83.6,65.2,29.96,SSE,156,0.0,1.0,54,0.00,,,0.00,WeatherCatV1.02B3,2013-06-15 00:06:00,
2013-06-14 19:11:00,83.4,65.0,29.95,ENE,73,0.0,1.0,54,0.00,,,0.00,WeatherCatV1.02B3,2013-06-15 00:11:00,
2013-06-14 19:16:00,83.1,64.7,29.95,ENE,74,0.0,1.0,54,0.00,,,0.00,WeatherCatV1.02B3,2013-06-15 00:16:00,
2013-06-14 19:21:00,82.9,64.5,29.95,SE,145,0.0,0.0,54,0.00,,,0.00,WeatherCatV1.02B3,2013-06-15 00:21:00,
2013-06-14 19:26:00,82.7,64.9,29.95,SE,138,0.0,4.0,55,0.00,,,0.00,WeatherCatV1.02B3,2013-06-15 00:26:00,
2013-06-14 19:31:00,82.4,64.6,29.96,ESE,106,0.0,4.0,55,0.00,,,0.00,WeatherCatV1.02B3,2013-06-15 00:31:00,
2013-06-14 19:36:00,82.2,64.9,29.96,ENE,73,0.0,1.0,56,0.00,,,0.00,WeatherCatV1.02B3,2013-06-15 00:36:00,
2013-06-14 19:41:00,82.0,64.7,29.96,ENE,69,0.0,2.0,56,0.00,,,0.00,WeatherCatV1.02B3,2013-06-15 00:41:00,
2013-06-14 19:46:00,81.9,64.6,29.96,SE,142,0.0,2.0,56,0.00,,,0.00,WeatherCatV1.02B3,2013-06-15 00:46:00,
2013-06-14 19:51:00,81.6,64.9,29.96,SE,142,0.0,1.0,57,0.00,,,0.00,WeatherCatV1.02B3,2013-06-15 00:51:00,
2013-06-14 19:56:00,81.4,65.2,29.96,SE,142,0.0,0.0,58,0.00,,,0.00,WeatherCatV1.02B3,2013-06-15 00:56:00,
2013-06-14 20:01:00,81.2,65.5,29.96,SE,142,0.0,1.0,59,0.00,,,0.00,WeatherCatV1.02B3,2013-06-15 01:01:00,
2013-06-14 20:06:00,80.9,65.2,29.96,SE,142,0.0,0.0,59,0.00,,,0.00,WeatherCatV1.02B3,2013-06-15 01:06:00,
2013-06-14 20:11:00,80.6,64.9,29.96,SE,142,0.0,1.0,59,0.00,,,0.00,WeatherCatV1.02B3,2013-06-15 01:11:00,
2013-06-14 20:16:00,80.3,65.1,29.96,SE,142,0.0,0.0,60,0.00,,,0.00,WeatherCatV1.02B3,2013-06-15 01:16:00,
2013-06-14 20:21:00,80.0,65.3,29.96,SE,142,0.0,0.0,61,0.00,,,0.00,WeatherCatV1.02B3,2013-06-15 01:21:00,
2013-06-14 20:26:00,79.8,65.1,29.96,SE,141,0.0,1.0,61,0.00,,,0.00,WeatherCatV1.02B3,2013-06-15 01:26:00,
2013-06-14 20:31:00,79.6,65.4,29.96,SE,141,0.0,1.0,62,0.00,,,0.00,WeatherCatV1.02B3,2013-06-15 01:31:00,
2013-06-14 20:36:00,79.3,65.1,29.96,SE,140,0.0,0.0,62,0.00,,,0.00,WeatherCatV1.02B3,2013-06-15 01:36:00,
2013-06-14 20:41:00,79.2,65.9,29.95,ENE,73,0.0,3.0,64,0.00,,,0.00,WeatherCatV1.02B3,2013-06-15 01:41:00,
2013-06-14 20:46:00,78.9,65.7,29.95,ENE,73,0.0,0.0,64,0.00,,,0.00,WeatherCatV1.02B3,2013-06-15 01:46:00,
2013-06-14 20:51:00,78.7,65.5,29.96,East,99,0.0,0.0,64,0.00,,,0.00,WeatherCatV1.02B3,2013-06-15 01:51:00,
2013-06-14 20:56:00,78.4,65.6,29.96,East,99,0.0,0.0,65,0.00,,,0.00,WeatherCatV1.02B3,2013-06-15 01:56:00,
2013-06-14 21:01:00,78.2,65.9,29.97,East,99,0.0,1.0,66,0.00,,,0.00,WeatherCatV1.02B3,2013-06-15 02:01:00,
2013-06-14 21:06:00,77.9,65.6,29.97,East,99,0.0,0.0,66,0.00,,,0.00,WeatherCatV1.02B3,2013-06-15 02:06:00,
2013-06-14 21:11:00,77.7,65.4,29.98,East,99,0.0,0.0,66,0.00,,,0.00,WeatherCatV1.02B3,2013-06-15 02:11:00,
2013-06-14 21:16:00,77.6,65.8,29.98,East,99,0.0,0.0,67,0.00,,,0.00,WeatherCatV1.02B3,2013-06-15 02:16:00,
2013-06-14 21:21:00,77.4,65.1,29.98,East,99,0.0,0.0,66,0.00,,,0.00,WeatherCatV1.02B3,2013-06-15 02:21:00,
2013-06-14 21:26:00,77.2,64.9,29.99,East,99,0.0,0.0,66,0.00,,,0.00,WeatherCatV1.02B3,2013-06-15 02:26:00,
2013-06-14 21:31:00,77.1,65.7,29.99,East,99,0.0,0.0,68,0.00,,,0.00,WeatherCatV1.02B3,2013-06-15 02:31:00,
2013-06-14 21:36:00,76.9,65.1,29.99,East,99,0.0,0.0,67,0.00,,,0.00,WeatherCatV1.02B3,2013-06-15 02:36:00,
2013-06-14 21:41:00,76.8,65.4,29.99,East,99,0.0,0.0,68,0.00,,,0.00,WeatherCatV1.02B3,2013-06-15 02:41:00,
2013-06-14 21:46:00,76.6,65.2,30.00,East,99,0.0,0.0,68,0.00,,,0.00,WeatherCatV1.02B3,2013-06-15 02:46:00,
2013-06-14 21:51:00,76.3,65.4,30.00,East,99,0.0,0.0,69,0.00,,,0.00,WeatherCatV1.02B3,2013-06-15 02:51:00,
2013-06-14 21:56:00,76.0,65.1,30.01,East,99,0.0,0.0,69,0.00,,,0.00,WeatherCatV1.02B3,2013-06-15 02:56:00,
2013-06-14 22:01:00,75.8,65.3,30.01,East,99,0.0,0.0,70,0.00,,,0.00,WeatherCatV1.02B3,2013-06-15 03:01:00,
2013-06-14 22:06:00,75.5,65.4,30.01,East,99,0.0,0.0,71,0.00,,,0.00,WeatherCatV1.02B3,2013-06-15 03:06:00,
2013-06-14 22:11:00,75.3,65.2,30.01,East,99,0.0,0.0,71,0.00,,,0.00,WeatherCatV1.02B3,2013-06-15 03:11:00,
2013-06-14 22:16:00,75.0,64.9,30.01,East,99,0.0,0.0,71,0.00,,,0.00,WeatherCatV1.02B3,2013-06-15 03:16:00,
2013-06-14 22:21:00,74.8,65.2,30.01,East,99,0.0,0.0,72,0.00,,,0.00,WeatherCatV1.02B3,2013-06-15 03:21:00,
2013-06-14 22:26:00,74.5,64.9,30.01,East,99,0.0,0.0,72,0.00,,,0.00,WeatherCatV1.02B3,2013-06-15 03:26:00,
2013-06-14 22:31:00,74.2,65.0,30.01,East,99,0.0,0.0,73,0.00,,,0.00,WeatherCatV1.02B3,2013-06-15 03:31:00,
2013-06-14 22:36:00,74.0,65.2,30.01,East,99,0.0,0.0,74,0.00,,,0.00,WeatherCatV1.02B3,2013-06-15 03:36:00,
2013-06-14 22:41:00,73.8,65.4,30.01,East,99,0.0,0.0,75,0.00,,,0.00,WeatherCatV1.02B3,2013-06-15 03:41:00,
2013-06-14 22:46:00,73.4,65.4,30.01,East,99,0.0,0.0,76,0.00,,,0.00,WeatherCatV1.02B3,2013-06-15 03:46:00,
2013-06-14 22:51:00,73.1,65.4,30.01,East,99,0.0,0.0,77,0.00,,,0.00,WeatherCatV1.02B3,2013-06-15 03:51:00,
2013-06-14 22:56:00,72.9,65.3,30.01,East,99,0.0,0.0,77,0.00,,,0.00,WeatherCatV1.02B3,2013-06-15 03:56:00,
2013-06-14 23:01:00,72.7,65.1,30.01,East,99,0.0,0.0,77,0.00,,,0.00,WeatherCatV1.02B3,2013-06-15 04:01:00,
2013-06-14 23:06:00,72.5,64.9,30.01,East,99,0.0,0.0,77,0.00,,,0.00,WeatherCatV1.02B3,2013-06-15 04:06:00,
2013-06-14 23:11:00,72.3,65.0,30.01,East,99,0.0,0.0,78,0.00,,,0.00,WeatherCatV1.02B3,2013-06-15 04:11:00,
2013-06-14 23:16:00,72.2,64.9,30.01,East,99,0.0,0.0,78,0.00,,,0.00,WeatherCatV1.02B3,2013-06-15 04:16:00,
2013-06-14 23:21:00,71.9,65.0,30.00,East,99,0.0,0.0,79,0.00,,,0.00,WeatherCatV1.02B3,2013-06-15 04:21:00,
2013-06-14 23:26:00,71.7,64.5,30.01,East,99,0.0,0.0,78,0.00,,,0.00,WeatherCatV1.02B3,2013-06-15 04:26:00,
2013-06-14 23:31:00,71.6,64.7,30.01,East,99,0.0,0.0,79,0.00,,,0.00,WeatherCatV1.02B3,2013-06-15 04:31:00,
2013-06-14 23:36:00,71.4,64.9,30.00,East,99,0.0,0.0,80,0.00,,,0.00,WeatherCatV1.02B3,2013-06-15 04:36:00,
2013-06-14 23:41:00,71.2,64.7,30.00,East,99,0.0,0.0,80,0.00,,,0.00,WeatherCatV1.02B3,2013-06-15 04:41:00,
2013-06-14 23:46:00,71.0,64.5,30.00,East,99,0.0,0.0,80,0.00,,,0.00,WeatherCatV1.02B3,2013-06-15 04:46:00,
2013-06-14 23:51:00,71.0,64.9,30.00,East,99,0.0,0.0,81,0.00,,,0.00,WeatherCatV1.02B3,2013-06-15 04:51:00,
2013-06-14 23:56:00,70.9,64.8,30.01,East,99,0.0,0.0,81,0.00,,,0.00,WeatherCatV1.02B3,2013-06-15 04:56:00,